Location: Rosenheim
(47.8408°N, 12.2113°E)
Time: 09:44:32
(UTC+01:00)

ISS - Pass Details

Date: 10 January 2018
Orbit: 401 x 406 km, 51.6° (Epoch: 17 January)

Event Time Altitude Azimuth Distance (km) Brightness Sun altitude
Exits shadow 05:00:03 15° 72° (ENE) 1,205 -0.7 -29.1°
Drops below altitude 10° 05:00:44 10° 76° (ENE) 1,466 -0.1 -29.0°
Sets 05:02:54 0° 84° (E) 2,327 1.2 -28.6°
